GW0285 Weather Reports


Display with metric or nautical units.
time (UTC)temp
F
wind
direction
speed
MPH
gust
MPH
rain 1hr
in
rain 24hr
in
rain mn
in
humidity
%
barometer
mb
20260510151803 52 312 1.0 5.0 0.00 0.11 0.11 86 1014.6
20260510150903 52 343 1.0 7.0 0.00 0.11 0.11 87 1014.2
20260510150003 51 331 2.0 6.0 0.00 0.11 0.11 87 1014.3
20260510145403 51 346 2.0 9.0 0.00 0.11 0.11 87 1014.4
20260510144503 51 337 3.0 10.0 0.00 0.11 0.11 88 1014.5
20260510143603 51 331 2.0 7.0 0.00 0.11 0.11 88 1014.7
20260510142703 51 332 2.0 6.0 0.00 0.11 0.11 88 1014.7
20260510141803 51 352 3.0 10.0 0.00 0.11 0.11 88 1014.8
20260510140903 51 323 3.0 12.0 0.00 0.11 0.11 88 1014.7
20260510140003 51 317 3.0 12.0 0.00 0.11 0.11 88 1014.6
20260510135403 51 320 3.0 12.0 0.00 0.11 0.11 88 1014.6
20260510134503 51 343 2.0 6.0 0.00 0.11 0.11 88 1014.7
20260510133603 51 320 3.0 12.0 0.01 0.11 0.11 88 1014.9
20260510132724 51 337 2.0 7.0 0.02 0.11 0.11 89 1015.0
20260510131803 51 336 3.0 14.0 0.03 0.11 0.11 89 1014.9
20260510130903 51 360 2.0 12.0 0.05 0.11 0.11 89 1014.9
20260510130024 51 323 2.0 5.0 0.06 0.11 0.11 90 1015.1
20260510125405 51 337 2.0 9.0 0.07 0.11 0.11 90 1015.2
20260510124524 51 340 2.0 7.0 0.09 0.11 0.11 90 1015.4
20260510123603 50 339 2.0 9.0 0.08 0.10 0.10 90 1015.5
20260510122703 50 335 2.0 7.0 0.07 0.09 0.09 90 1015.4
20260510121803 50 338 2.0 7.0 0.07 0.08 0.08 89 1015.8
20260510120903 50 22 2.0 9.0 0.05 0.06 0.06 88 1015.6
20260510120003 51 343 2.0 12.0 0.04 0.05 0.05 87 1015.8
20260510115403 50 331 3.0 12.0 0.04 0.04 0.04 86 1015.7
20260510114503 51 332 2.0 7.0 0.02 0.02 0.02 86 1015.7
20260510113603 51 324 3.0 12.0 0.02 0.02 0.02 85 1015.7
20260510112703 50 354 4.0 12.0 0.02 0.02 0.02 84 1015.9
20260510111824 50 1 4.0 12.0 0.01 0.01 0.01 84 1015.7
20260510110903 51 4 4.0 14.0 0.01 0.01 0.01 83 1015.8
20260510110003 51 341 3.0 9.0 0.01 0.01 0.01 82 1015.7
20260510105424 51 332 3.0 15.0 0.00 0.00 0.00 82 1016.0
20260510104524 51 336 4.0 14.0 0.00 0.00 0.00 82 1015.9
20260510103624 51 349 4.0 17.0 0.00 0.00 0.00 81 1016.0
20260510102703 52 336 3.0 7.0 0.00 0.00 0.00 79 1016.1
20260510101824 52 349 4.0 12.0 0.00 0.00 0.00 77 1016.1
20260510100903 52 354 3.0 10.0 0.00 0.00 0.00 76 1016.2
20260510100003 53 357 4.0 19.0 0.00 0.00 0.00 75 1016.1
20260510095424 53 354 4.0 12.0 0.00 0.00 0.00 75 1016.2
20260510094503 52 355 5.0 17.0 0.00 0.00 0.00 75 1016.1
20260510093603 52 5 4.0 14.0 0.00 0.00 0.00 75 1016.0
20260510092703 52 298 4.0 10.0 0.00 0.00 0.00 75 1016.2
20260510091803 52 353 6.0 19.0 0.00 0.00 0.00 76 1016.0
20260510090903 52 3 4.0 11.0 0.00 0.00 0.00 77 1015.9
20260510090003 51 16 5.0 17.0 0.00 0.00 0.00 77 1016.0
20260510085403 51 354 5.0 14.0 0.00 0.00 0.00 77 1015.9
20260510084503 51 351 4.0 14.0 0.00 0.00 0.00 78 1016.0
20260510083603 51 5 4.0 12.0 0.00 0.00 0.00 78 1016.1
20260510082703 51 335 4.0 15.0 0.00 0.00 0.00 78 1015.9
20260510081803 51 335 4.0 14.0 0.00 0.00 0.00 78 1016.2
20260510080904 51 335 3.0 9.0 0.00 0.00 0.00 79 1016.2
20260510080024 51 343 3.0 12.0 0.00 0.00 0.00 79 1016.2
20260510075404 51 336 3.0 14.0 0.00 0.00 0.00 79 1015.9
20260510074503 51 2 4.0 14.0 0.00 0.00 0.00 79 1016.1
20260510073603 51 346 4.0 9.0 0.00 0.00 0.00 80 1015.9
20260510072703 51 330 3.0 12.0 0.00 0.00 0.00 80 1016.1
20260510071803 51 321 3.0 9.0 0.00 0.00 0.00 80 1016.4
20260510070903 50 348 4.0 12.0 0.00 0.00 0.00 81 1016.2
20260510070004 50 326 3.0 9.0 0.00 0.00 0.00 82 1016.1
20260510065425 50 322 3.0 14.0 0.00 0.00 0.00 82 1016.1
20260510064503 50 335 4.0 10.0 0.00 0.00 0.00 83 1016.3
20260510063624 49 328 3.0 12.0 0.00 0.00 0.00 84 1016.3
20260510062703 49 360 3.0 9.0 0.00 0.00 0.00 85 1016.3
20260510061803 49 339 3.0 14.0 0.00 0.00 0.00 85 1016.5
20260510060903 49 314 3.0 9.0 0.00 0.00 0.00 86 1016.5
20260510060003 48 337 3.0 14.0 0.00 0.00 0.00 86 1016.3
20260510055403 48 341 3.0 7.0 0.00 0.00 0.00 86 1016.6
20260510054503 48 335 3.0 10.0 0.00 0.00 0.00 86 1016.4
20260510053603 49 1 3.0 12.0 0.00 0.00 0.00 86 1016.4
20260510052703 49 328 1.0 10.0 0.00 0.00 0.00 86 1016.4
20260510051824 49 339 3.0 14.0 0.00 0.00 0.00 86 1016.3
20260510050903 49 323 4.0 12.0 0.00 0.00 0.00 86 1016.3
20260510050003 48 314 3.0 9.0 0.00 0.00 0.00 86 1016.2
20260510045403 48 340 3.0 14.0 0.00 0.00 0.00 86 1016.0
20260510044503 49 353 2.0 7.0 0.00 0.00 0.00 86 1016.3
20260510043603 49 347 4.0 15.0 0.00 0.00 0.00 86 1015.9
20260510042724 49 347 3.0 14.0 0.00 0.00 0.00 86 1015.9
20260510041804 49 327 3.0 12.0 0.00 0.00 0.00 86 1016.0
20260510040903 49 358 3.0 9.0 0.00 0.00 0.00 85 1016.2
20260510040004 49 324 3.0 10.0 0.00 0.00 0.00 85 1016.2
20260510035403 49 325 3.0 10.0 0.00 0.00 0.00 85 1016.3
20260510034524 49 330 2.0 10.0 0.00 0.00 0.00 84 1016.2
20260510033603 49 357 4.0 17.0 0.00 0.00 0.00 83 1016.3
20260510032703 49 318 2.0 12.0 0.00 0.00 0.00 81 1016.4
20260510031803 50 315 2.0 12.0 0.00 0.00 0.00 80 1016.5
20260510030924 50 337 1.0 10.0 0.00 0.00 0.00 78 1016.5
20260510030003 50 259 0.0 7.0 0.00 0.00 0.00 76 1016.5
20260510025403 50 328 0.0 7.0 0.00 0.00 0.00 75 1016.5
20260510024503 51 2 0.0 9.0 0.00 0.00 0.00 74 1016.7
20260510023624 51 22 0.0 5.0 0.00 0.00 0.00 74 1016.5
20260510022724 51 352 0.0 3.0 0.00 0.00 0.00 73 1016.5
20260510021824 52 74 0.0 7.0 0.00 0.00 0.00 73 1016.2
20260510020903 52 14 0.0 7.0 0.00 0.00 0.00 72 1016.3
20260510020003 52 238 1.0 12.0 0.00 0.00 0.00 72 1016.3
20260510015424 52 53 1.0 12.0 0.00 0.00 0.00 72 1016.1
20260510014503 52 346 0.0 5.0 0.00 0.00 0.00 71 1016.2
20260510013603 52 149 0.0 3.0 0.00 0.00 0.00 70 1016.4
20260510012703 53 0 0.0 0.0 0.00 0.00 0.00 69 1016.6
20260510011824 53 45 0.0 1.0 0.00 0.00 0.00 69 1016.5
20260510010903 53 25 1.0 10.0 0.00 0.00 0.00 68 1016.4
20260510010003 53 330 1.0 10.0 0.00 0.00 0.00 68 1016.3
20260510005424 53 325 1.0 10.0 0.00 0.00 0.00 67 1016.3
20260510004503 53 313 0.0 7.0 0.00 0.00 0.00 67 1016.4
20260510003603 53 39 0.0 3.0 0.00 0.00 0.00 66 1016.4
20260510002703 53 321 1.0 10.0 0.00 0.00 0.00 65 1016.3
20260510001803 53 349 0.0 3.0 0.00 0.00 0.00 64 1016.2
20260510000903 53 52 0.0 7.0 0.00 0.00 0.00 62 1016.3
20260510000003 53 349 0.0 3.0 0.00 0.00 0.00 62 1016.4
20260509235403 53 2 0.0 4.0 0.00 0.00 0.00 61 1016.5
20260509234503 54 29 0.0 9.0 0.00 0.00 0.00 60 1016.3
20260509233603 54 318 0.0 2.0 0.00 0.00 0.00 59 1016.3
20260509232703 54 320 1.0 9.0 0.00 0.00 0.00 58 1016.4
20260509231803 54 19 0.0 12.0 0.00 0.00 0.00 57 1016.3
20260509230903 54 325 0.0 5.0 0.00 0.00 0.00 57 1016.3
20260509230004 54 95 0.0 10.0 0.00 0.00 0.00 56 1016.4
20260509225403 54 9 1.0 10.0 0.00 0.00 0.00 55 1016.5
20260509224503 55 21 0.0 10.0 0.00 0.00 0.00 54 1016.5
20260509223603 55 346 1.0 10.0 0.00 0.00 0.00 54 1016.4
20260509222703 55 345 0.0 5.0 0.00 0.00 0.00 53 1016.4
20260509221804 55 3 0.0 9.0 0.00 0.00 0.00 53 1016.4
20260509220903 55 346 0.0 10.0 0.00 0.00 0.00 52 1016.4
20260509220003 55 5 0.0 10.0 0.00 0.00 0.00 53 1016.3
20260509215424 55 18 0.0 2.0 0.00 0.00 0.00 55 1016.5
20260509214503 55 24 0.0 5.0 0.00 0.00 0.00 53 1016.5
20260509213624 55 344 0.0 3.0 0.00 0.00 0.00 54 1016.5
20260509212703 55 341 0.0 7.0 0.00 0.00 0.00 56 1016.5
20260509211803 56 333 0.0 0.0 0.00 0.00 0.00 56 1016.4
20260509210903 56 347 0.0 5.0 0.00 0.00 0.00 56 1016.4
20260509210003 56 0 0.0 0.0 0.00 0.00 0.00 56 1016.5
20260509205403 56 340 0.0 2.0 0.00 0.00 0.00 56 1016.3
20260509204503 57 0 0.0 0.0 0.00 0.00 0.00 55 1016.3
20260509203603 57 13 0.0 2.0 0.00 0.00 0.00 55 1016.2
20260509202703 58 85 0.0 5.0 0.00 0.00 0.00 56 1016.3
20260509201803 58 22 0.0 5.0 0.00 0.00 0.00 56 1015.9
20260509200903 58 315 0.0 0.0 0.00 0.00 0.00 56 1015.9
20260509200003 59 275 0.0 5.0 0.00 0.00 0.00 55 1015.8
20260509195403 60 345 0.0 7.0 0.00 0.00 0.00 55 1016.0
20260509194503 60 343 0.0 7.0 0.00 0.00 0.00 56 1015.9
20260509193603 60 317 0.0 3.0 0.00 0.00 0.00 57 1015.6
20260509192703 61 102 0.0 2.0 0.00 0.00 0.00 56 1015.8
20260509191803 62 0 0.0 0.0 0.00 0.00 0.00 57 1015.9
20260509190903 62 0 0.0 0.0 0.00 0.00 0.00 58 1015.9
20260509190003 63 347 0.0 7.0 0.00 0.00 0.00 56 1015.8
20260509185403 63 303 0.0 2.0 0.00 0.00 0.00 56 1015.8
20260509184524 63 343 0.0 3.0 0.00 0.00 0.00 55 1015.7
20260509183603 64 27 1.0 10.0 0.00 0.00 0.00 54 1015.6
20260509182703 64 338 0.0 3.0 0.00 0.00 0.00 53 1015.8
20260509181804 65 72 0.0 7.0 0.00 0.00 0.00 53 1015.9
20260509180903 65 37 0.0 9.0 0.00 0.00 0.00 52 1016.0
20260509180003 66 58 1.0 9.0 0.00 0.00 0.00 52 1015.8
20260509175403 66 49 0.0 5.0 0.00 0.00 0.00 52 1015.8
20260509174503 67 33 0.0 5.0 0.00 0.00 0.00 51 1015.9
20260509173603 67 22 0.0 3.0 0.00 0.00 0.00 50 1015.9
20260509172703 66 82 0.0 9.0 0.00 0.00 0.00 51 1015.9
20260509171803 67 316 0.0 7.0 0.00 0.00 0.00 52 1015.9
20260509170903 67 30 0.0 5.0 0.00 0.00 0.00 51 1015.8
20260509170003 67 325 0.0 3.0 0.00 0.00 0.00 50 1015.8
20260509165403 68 20 0.0 1.0 0.00 0.00 0.00 50 1015.6
20260509164503 69 24 1.0 5.0 0.00 0.00 0.00 48 1015.7
20260509163624 70 54 0.0 9.0 0.00 0.00 0.00 46 1015.9
20260509162703 69 28 1.0 10.0 0.00 0.00 0.00 47 1015.7
20260509161803 70 89 0.0 9.0 0.00 0.00 0.00 46 1016.0
20260509160903 70 94 1.0 9.0 0.00 0.00 0.00 48 1016.1
20260509160024 71 352 0.0 7.0 0.00 0.00 0.00 46 1016.2
20260509155403 70 11 0.0 7.0 0.00 0.00 0.00 47 1016.4
20260509154524 70 149 0.0 3.0 0.00 0.00 0.00 48 1016.3
20260509153603 69 4 0.0 7.0 0.00 0.00 0.00 47 1016.4
20260509152703 69 0 0.0 0.0 0.00 0.00 0.00 50 1016.5